Regional Weather Roundup
Issued by NWS

Home | Current Version | Previous Version | Graphics & Text | Print | Product List | Glossary On
Versions: 1 2 3 4 5 6 7 8 9 10 11 12 13 14 15 16 17 18 19 20 21 22 23 24 25 26 27 28 29 30 31 32 33 34 35 36 37 38 39 40 41 42 43 44 45 46 47 48 49 50
000
ASUS43 KLSX 252207
RWRMO

WEATHER SUMMARY FOR MISSOURI
NATIONAL WEATHER SERVICE SPRINGFIELD MO
500 PM CDT SAT MAR 25 2017

NOTE: "FAIR" INDICATES FEW OR NO CLOUDS BELOW 12,000 FEET WITH NO
       SIGNIFICANT WEATHER AND/OR OBSTRUCTIONS TO VISIBILITY.
       CURRENT SKY AND/OR WEATHER CONDITIONS ARE NOT AVAILABLE FOR
       CHILLICOTHE AND FARMINGTON.

MOZ001>031-035>038-043-044-053-054-252300-
...NORTHERN AND WESTERN MISSOURI...

CITY           SKY/WX    TMP DP  RH WIND       PRES   REMARKS
KANSAS CTY INT CLOUDY    50  48  93 N10       29.83S
KANSAS C DTWN  CLOUDY    55  48  77 N12       29.82R
LEE`S SUMMIT   CLOUDY    57  51  80 N13       29.81R
ST JOSEPH      CLOUDY    49  46  90 N14       29.86S
CHILLICOTHE      N/A     52  49  89 N6        29.83F
KIRKSVILLE     CLOUDY    50  49  96 NE13      29.82S FOG

$$
MOZ066>068-077>081-088>096-101>105-252300-
...SOUTHWEST MISSOURI...

CITY           SKY/WX    TMP DP  RH WIND       PRES   REMARKS
SPRINGFIELD    CLOUDY    50  47  89 W17       29.85R
JOPLIN         CLOUDY    49  45  86 W10       29.89R
BRANSON        CLOUDY    50  46  87 W9G16     29.88R

$$
MOZ032>034-039>042-045>050-055>058-069>072-252300-
...CENTRAL MISSOURI...

CITY           SKY/WX    TMP DP  RH WIND       PRES   REMARKS
COLUMBIA       LGT RAIN  58  58 100 E9        29.78R
JEFFERSON CITY LGT RAIN  61  56  83 E5        29.77R
ROLLA          LGT RAIN  60  56  86 S8        29.75S
SEDALIA        CLOUDY    62  55  77 N6        29.78F
WHITEMAN AFB   LGT RAIN  55  55 100 N12       29.77S
WARRENSBURG    LGT RAIN  55  52  88 N8        29.79S
OSAGE BEACH    CLOUDY   N/A N/A N/A W7        29.77S

$$
MOZ051-052-059>065-252300-
...EAST CENTRAL MISSOURI...

CITY           SKY/WX    TMP DP  RH WIND       PRES   REMARKS
ST LOUIS INTL  PTSUNNY   66  56  70 SE15      29.79F
SPIRIT OF STL  PTSUNNY   66  57  72 SE12G20   29.77F
ST CHARLES     MOSUNNY   66  59  78 SE15      29.79S

$$
MOZ072>076-082>087-097>100-106>115-252300-
...SOUTH CENTRAL AND SOUTHEAST MISSOURI...

CITY           SKY/WX    TMP DP  RH WIND       PRES   REMARKS
CAPE GIRARDEAU CLOUDY    64  57  78 S17G25    29.84F
FARMINGTON     CLOUDY    62  57  83 SE12      29.80F
POPLAR BLUFF   CLOUDY    67  59  75 S13       29.80F
WEST PLAINS    LGT RAIN  57  53  86 W10       29.83R

$$




USA.gov is the U.S. government's official web portal to all federal, state and local government web resources and services.